Weather History for KFCM - January, 2014

Change the Weather History Date:

Friday, January 31, 2014

  Actual Average Record
Temperature  
Mean Temperature -2 °F -  
Max Temperature 6 °F 24 °F 45 °F (2012)
Min Temperature -11 °F 9 °F -18 °F (2004)
Degree Days  
Heating Degree Days 68    
Moisture  
Dew Point -10 °F    
Average Humidity 70    
Maximum Humidity 83    
Minimum Humidity 58    
Precipitation  
Precipitation 0.00 in - - ()
Sea Level Pressure  
Sea Level Pressure 30.14 in    
Wind  
Wind Speed 6 mph (SSW)    
Max Wind Speed 10 mph    
Max Gust Speed -    
Visibility 10 miles    
Events      
Averages and records for this station are not official NWS values.
T = Trace of Precipitation, MM = Missing Value Source: NWS Daily Summary

Daily Weather History Graph

Daily Weather History Graph

Search for Another Location

Airport or City:

Trip Planner

Search our weather history database for the weather conditions in past years. The results will help you decide how hot, cold, wet, or windy it might be!

Date:

Astronomy

Jan. 31, 2014 Rise Set
Actual Time 7:34 AM CST 5:20 PM CST
Civil Twilight 7:03 AM CST 5:52 PM CST
Nautical Twilight 6:27 AM CST 6:27 PM CST
Astronomical Twilight 5:53 AM CST 7:01 PM CST
Moon 7:40 AM CST (1/31) 6:51 PM CST (1/31)
Length of Visible Light 10h 49m
Length of Day
9h 46m
New Moon, 1% of the Moon is Illuminated
Jan 31
New Moon
Feb 6
First Quarter
Feb 14
Full
Feb 22
Last Quarter
Mar 1
New

Hourly Weather History & Observations

Time (CST) Temp. Windchill Dew Point Humidity Pressure Visibility Wind Dir Wind Speed Gust Speed Precip Events Conditions
12:53 AM -7.1 °F -21.4 °F -14.1 °F 72% 30.13 in 10.0 mi West 6.9 mph - N/A   Clear
1:53 AM -7.1 °F -15.9 °F -11.9 °F 79% 30.12 in 10.0 mi SW 3.5 mph - N/A   Clear
2:53 AM -9.0 °F -23.8 °F -14.1 °F 79% 30.15 in 10.0 mi SW 6.9 mph - N/A   Clear
3:53 AM -11.0 °F -22.8 °F -17.0 °F 75% 30.15 in 10.0 mi West 4.6 mph - N/A   Clear
4:53 AM -11.0 °F - -17.0 °F 75% 30.15 in 10.0 mi Calm Calm - N/A   Clear
5:53 AM -11.0 °F -20.4 °F -18.0 °F 71% 30.15 in 10.0 mi WSW 3.5 mph - N/A   Clear
6:53 AM -11.9 °F -25.7 °F -18.9 °F 71% 30.17 in 10.0 mi SW 5.8 mph - N/A   Clear
7:53 AM -11.0 °F - -16.1 °F 78% 30.17 in 10.0 mi Calm Calm - N/A   Clear
8:53 AM -8.0 °F -16.9 °F -11.9 °F 83% 30.17 in 10.0 mi WSW 3.5 mph - N/A   Clear
9:53 AM -5.1 °F -19.1 °F -11.0 °F 76% 30.21 in 10.0 mi SW 6.9 mph - N/A   Clear
10:53 AM -0.9 °F -12.7 °F -9.9 °F 66% 30.22 in 10.0 mi WSW 5.8 mph - N/A   Clear
11:53 AM 1.0 °F -14.9 °F -8.0 °F 66% 30.21 in 10.0 mi SSW 10.4 mph - N/A   Clear
12:53 PM 3.0 °F -12.5 °F -7.1 °F 63% 30.19 in 10.0 mi South 10.4 mph - N/A   Clear
1:53 PM 5.0 °F -8.1 °F -6.0 °F 61% 30.16 in 10.0 mi South 8.1 mph - N/A   Partly Cloudy
2:53 PM 6.1 °F -4.3 °F -6.0 °F 58% 30.14 in 10.0 mi SW 5.8 mph - N/A   Clear
3:53 PM 6.1 °F -7.8 °F -6.0 °F 58% 30.14 in 10.0 mi South 9.2 mph - N/A   Clear
4:53 PM 5.0 °F -6.9 °F -6.0 °F 61% 30.13 in 10.0 mi South 6.9 mph - N/A   Clear
5:53 PM 3.0 °F -9.3 °F -7.1 °F 63% 30.10 in 10.0 mi South 6.9 mph - N/A   Clear
6:53 PM 3.0 °F -10.5 °F -6.0 °F 66% 30.10 in 10.0 mi South 8.1 mph - N/A   Clear
7:53 PM -0.0 °F -11.6 °F -8.0 °F 69% 30.10 in 10.0 mi South 5.8 mph - N/A   Clear
8:53 PM 1.9 °F -12.9 °F -5.1 °F 72% 30.11 in 10.0 mi South 9.2 mph - N/A   Clear
9:53 PM 1.0 °F -11.7 °F -6.0 °F 72% 30.08 in 10.0 mi SSW 6.9 mph - N/A   Clear
10:53 PM 1.9 °F -12.9 °F -5.1 °F 72% 30.07 in 10.0 mi South 9.2 mph - N/A   Clear
11:53 PM 1.9 °F -5.6 °F -5.1 °F 72% 30.07 in 10.0 mi South 3.5 mph - N/A   Clear